TimePDT,TemperatureF,Dew PointF,Humidity,Sea Level PressureIn,VisibilityMPH,Wind Direction,Wind SpeedMPH,Gust SpeedMPH,PrecipitationIn,Events,Conditions,WindDirDegrees,DateUTC
12:56 AM,41.9,41.9,100,30.06,10.0,Calm,Calm,-,N/A,,Clear,0,2013-03-25 07:56:00
1:56 AM,41.0,41.0,100,30.05,10.0,ESE,4.6,-,N/A,,Clear,120,2013-03-25 08:56:00
2:56 AM,41.9,41.9,100,30.04,10.0,Variable,4.6,-,N/A,,Clear,0,2013-03-25 09:56:00
3:56 AM,41.0,41.0,100,30.03,10.0,Variable,4.6,-,N/A,,Clear,0,2013-03-25 10:56:00
4:56 AM,39.9,39.9,100,30.03,10.0,ESE,3.5,-,N/A,,Clear,110,2013-03-25 11:56:00
5:56 AM,39.9,39.9,100,30.02,10.0,Calm,Calm,-,N/A,,Clear,0,2013-03-25 12:56:00
6:19 AM,39.2,39.2,100,30.01,10.0,Variable,3.5,-,N/A,,Mostly Cloudy,0,2013-03-25 13:19:00
6:56 AM,41.0,41.0,100,30.02,10.0,Variable,3.5,-,N/A,,Mostly Cloudy,0,2013-03-25 13:56:00
7:05 AM,41.0,41.0,100,30.01,10.0,SE,4.6,-,N/A,,Scattered Clouds,130,2013-03-25 14:05:00
7:12 AM,41.0,41.0,100,30.01,10.0,Variable,4.6,-,N/A,,Mostly Cloudy,0,2013-03-25 14:12:00
7:39 AM,42.8,42.8,100,30.00,10.0,Variable,3.5,-,N/A,,Overcast,0,2013-03-25 14:39:00
7:56 AM,41.9,41.9,100,30.02,10.0,Variable,3.5,-,N/A,,Overcast,0,2013-03-25 14:56:00
8:56 AM,43.0,43.0,100,30.02,10.0,Variable,5.8,-,N/A,,Overcast,0,2013-03-25 15:56:00
9:56 AM,45.0,45.0,100,30.02,10.0,ESE,5.8,-,N/A,,Scattered Clouds,120,2013-03-25 16:56:00
10:06 AM,44.6,44.6,100,30.02,10.0,SE,6.9,-,N/A,,Mostly Cloudy,140,2013-03-25 17:06:00
10:56 AM,46.9,46.9,100,30.04,10.0,SSW,8.1,-,N/A,,Mostly Cloudy,200,2013-03-25 17:56:00
11:56 AM,47.8,47.8,100,30.04,10.0,South,9.2,-,N/A,,Overcast,170,2013-03-25 18:56:00
12:56 PM,46.9,46.9,100,30.04,10.0,South,8.1,-,N/A,,Overcast,190,2013-03-25 19:56:00
1:11 PM,46.4,46.4,100,30.03,10.0,Variable,6.9,-,N/A,,Overcast,0,2013-03-25 20:11:00
1:39 PM,46.4,46.4,100,30.02,10.0,SSE,8.1,-,N/A,,Overcast,160,2013-03-25 20:39:00
1:56 PM,47.8,47.8,100,30.04,10.0,South,8.1,-,N/A,,Overcast,180,2013-03-25 20:56:00
2:05 PM,46.4,46.4,100,30.02,10.0,South,6.9,-,N/A,,Overcast,180,2013-03-25 21:05:00
2:56 PM,46.9,46.9,100,30.03,10.0,South,8.1,-,N/A,,Overcast,170,2013-03-25 21:56:00
3:27 PM,48.2,48.2,100,30.02,10.0,Variable,6.9,-,N/A,,Overcast,0,2013-03-25 22:27:00
3:56 PM,47.8,47.8,100,30.01,10.0,SSE,8.1,-,N/A,,Overcast,160,2013-03-25 22:56:00
4:13 PM,46.4,46.4,100,30.01,10.0,South,6.9,-,N/A,,Overcast,190,2013-03-25 23:13:00
4:56 PM,46.9,46.9,100,30.02,10.0,Variable,3.5,-,N/A,,Overcast,0,2013-03-25 23:56:00
5:56 PM,46.9,46.9,100,30.02,10.0,Variable,5.8,-,N/A,,Overcast,0,2013-03-26 00:56:00
6:09 PM,46.4,46.4,100,30.01,10.0,SSE,6.9,-,N/A,,Overcast,160,2013-03-26 01:09:00
6:26 PM,46.4,46.4,100,30.01,10.0,SE,5.8,-,0.00,Rain,Light Rain,140,2013-03-26 01:26:00
6:56 PM,46.9,46.9,100,30.03,10.0,SSE,5.8,-,0.00,,Overcast,160,2013-03-26 01:56:00
7:33 PM,46.4,46.4,100,30.01,10.0,Variable,3.5,-,N/A,,Overcast,0,2013-03-26 02:33:00
7:56 PM,46.9,46.9,100,30.03,10.0,SE,3.5,-,N/A,,Overcast,140,2013-03-26 02:56:00
8:56 PM,45.9,45.9,100,30.04,10.0,Calm,Calm,-,N/A,,Overcast,0,2013-03-26 03:56:00
9:20 PM,46.4,46.4,100,30.03,10.0,Calm,Calm,-,N/A,,Overcast,0,2013-03-26 04:20:00
9:56 PM,45.9,45.9,100,30.04,10.0,Calm,Calm,-,N/A,,Overcast,0,2013-03-26 04:56:00
10:33 PM,46.4,46.4,100,30.03,10.0,Calm,Calm,-,N/A,,Overcast,0,2013-03-26 05:33:00
10:56 PM,45.9,45.9,100,30.04,10.0,Calm,Calm,-,N/A,,Overcast,0,2013-03-26 05:56:00
11:10 PM,46.4,46.4,100,30.04,10.0,Calm,Calm,-,N/A,,Overcast,0,2013-03-26 06:10:00
11:41 PM,46.4,46.4,100,30.04,10.0,Calm,Calm,-,N/A,,Overcast,0,2013-03-26 06:41:00
11:56 PM,45.9,45.9,100,30.05,10.0,Calm,Calm,-,N/A,,Overcast,0,2013-03-26 06:56:00